APJ728 RJFF-RJBB

Flight info

Callsign APJ728
Flight time 0h 43m
Altitude 35000
Route SALTY Y35 BERTH
Aircraft A20N/M-SDE2E3FGHIRWXY/LB1

Departure

Time 2026-02-21 05:16
Airport Fukuoka Airport (RJFF)

Arrival

Time 2026-02-21 06:00
Airport Kansai International Airport (RJBB)
Time Latitude Longitude Altitude Speed Heading
2026-02-21 04:58 33.58632 130.44482 30 ft 0 kts 244°
2026-02-21 05:07 33.58638 130.44495 30 ft 4 kts 250°
2026-02-21 05:07 33.58643 130.44514 30 ft 5 kts 259°
2026-02-21 05:07 33.58641 130.44556 30 ft 5 kts 290°
2026-02-21 05:08 33.58640 130.44560 30 ft 0 kts 291°
2026-02-21 05:09 33.58643 130.44555 30 ft 2 kts 304°
2026-02-21 05:09 33.58658 130.44547 30 ft 3 kts 346°
2026-02-21 05:09 33.58664 130.44552 30 ft 0 kts 47°
2026-02-21 05:09 33.58666 130.44571 30 ft 4 kts 94°
2026-02-21 05:10 33.58632 130.44597 31 ft 10 kts 160°
2026-02-21 05:10 33.58547 130.44647 31 ft 8 kts 150°
2026-02-21 05:10 33.58529 130.44660 31 ft 0 kts 150°
2026-02-21 05:10 33.58524 130.44663 31 ft 3 kts 150°
2026-02-21 05:11 33.58474 130.44701 32 ft 14 kts 147°
2026-02-21 05:11 33.58389 130.44784 33 ft 14 kts 101°
2026-02-21 05:11 33.58415 130.44869 33 ft 10 kts 59°
2026-02-21 05:11 33.58483 130.44906 33 ft 13 kts 347°
2026-02-21 05:12 33.58572 130.44848 31 ft 16 kts 330°
2026-02-21 05:12 33.58680 130.44776 31 ft 19 kts 330°
2026-02-21 05:12 33.58804 130.44693 30 ft 22 kts 330°
2026-02-21 05:12 33.58940 130.44601 29 ft 24 kts 330°
2026-02-21 05:13 33.59090 130.44499 27 ft 26 kts 330°
2026-02-21 05:13 33.59251 130.44391 27 ft 27 kts 330°
2026-02-21 05:13 33.59420 130.44277 29 ft 25 kts 340°
2026-02-21 05:13 33.59497 130.44256 29 ft 12 kts 350°
2026-02-21 05:14 33.59590 130.44238 25 ft 15 kts 356°
2026-02-21 05:14 33.59626 130.44243 26 ft 0 kts 22°
2026-02-21 05:14 33.59638 130.44252 26 ft 6 kts 34°
2026-02-21 05:14 33.59667 130.44329 26 ft 15 kts 106°
2026-02-21 05:15 33.59606 130.44371 26 ft 0 kts 149°
2026-02-21 05:15 33.59569 130.44398 24 ft 34 kts 150°
2026-02-21 05:15 33.59066 130.44741 28 ft 128 kts 150°
2026-02-21 05:16 33.58076 130.45398 143 ft 188 kts 151°
2026-02-21 05:16 33.56874 130.46222 777 ft 211 kts 151°
2026-02-21 05:16 33.55577 130.47013 1969 ft 202 kts 159°
2026-02-21 05:16 33.54243 130.47665 3010 ft 216 kts 160°
2026-02-21 05:17 33.52785 130.48400 3778 ft 239 kts 159°
2026-02-21 05:17 33.51208 130.49276 4510 ft 260 kts 157°
2026-02-21 05:17 33.49566 130.50266 5546 ft 268 kts 156°
2026-02-21 05:17 33.47898 130.51316 6582 ft 274 kts 156°
2026-02-21 05:18 33.46196 130.52405 7563 ft 283 kts 156°
2026-02-21 05:18 33.44449 130.53524 8167 ft 288 kts 156°
2026-02-21 05:18 33.42679 130.54656 9260 ft 289 kts 156°
2026-02-21 05:18 33.40888 130.55800 10249 ft 295 kts 156°
2026-02-21 05:19 33.39032 130.56977 10756 ft 318 kts 156°
2026-02-21 05:19 33.36999 130.58257 11142 ft 342 kts 156°
2026-02-21 05:19 33.34857 130.59610 11845 ft 352 kts 156°
2026-02-21 05:19 33.32678 130.60992 12739 ft 358 kts 156°
2026-02-21 05:20 33.30457 130.62402 13601 ft 365 kts 156°
2026-02-21 05:20 33.28201 130.63835 14421 ft 369 kts 156°
2026-02-21 05:20 33.25920 130.65281 15229 ft 373 kts 156°
2026-02-21 05:20 33.23613 130.66753 16018 ft 378 kts 155°
2026-02-21 05:21 33.21310 130.68333 16752 ft 387 kts 147°
2026-02-21 05:21 33.19384 130.70621 17518 ft 397 kts 127°
2026-02-21 05:21 33.18102 130.73561 18261 ft 405 kts 109°
2026-02-21 05:21 33.17604 130.76873 18939 ft 409 kts 90°
2026-02-21 05:22 33.17939 130.80240 19613 ft 411 kts 72°
2026-02-21 05:22 33.18992 130.83414 20270 ft 413 kts 62°
2026-02-21 05:22 33.20285 130.86486 20928 ft 416 kts 61°
2026-02-21 05:22 33.21560 130.89605 21606 ft 419 kts 63°
2026-02-21 05:23 33.22779 130.92786 22212 ft 425 kts 64°
2026-02-21 05:23 33.23948 130.96045 22864 ft 428 kts 66°
2026-02-21 05:23 33.25077 130.99352 23488 ft 432 kts 66°
2026-02-21 05:23 33.25817 131.01567 23874 ft 435 kts 67°
2026-02-21 05:24 33.26932 131.04944 24388 ft 439 kts 67°
2026-02-21 05:24 33.28418 131.09462 25049 ft 444 kts 67°
2026-02-21 05:24 33.29553 131.12910 25554 ft 447 kts 67°
2026-02-21 05:24 33.30698 131.16383 26039 ft 451 kts 67°
2026-02-21 05:25 33.31850 131.19885 26500 ft 455 kts 67°
2026-02-21 05:25 33.33010 131.23425 26968 ft 459 kts 67°
2026-02-21 05:25 33.33797 131.25834 27273 ft 461 kts 67°
2026-02-21 05:25 33.34967 131.29419 27716 ft 465 kts 67°
2026-02-21 05:26 33.36131 131.32987 28136 ft 469 kts 67°
2026-02-21 05:26 33.37318 131.36628 28554 ft 472 kts 67°
2026-02-21 05:26 33.39714 131.43988 29340 ft 479 kts 67°
2026-02-21 05:27 33.40931 131.47734 29714 ft 483 kts 67°
2026-02-21 05:27 33.42151 131.51493 30099 ft 486 kts 67°
2026-02-21 05:27 33.43376 131.55272 30420 ft 489 kts 67°
2026-02-21 05:27 33.44610 131.59083 30737 ft 492 kts 67°
2026-02-21 05:28 33.45851 131.62921 31042 ft 496 kts 67°
2026-02-21 05:28 33.47098 131.66779 31390 ft 498 kts 67°
2026-02-21 05:28 33.48346 131.70647 31790 ft 498 kts 67°
2026-02-21 05:28 33.49591 131.74522 32206 ft 499 kts 67°
2026-02-21 05:29 33.50804 131.78413 32600 ft 499 kts 68°
2026-02-21 05:29 33.52003 131.82324 32988 ft 500 kts 68°
2026-02-21 05:29 33.53197 131.86236 33373 ft 500 kts 68°
2026-02-21 05:29 33.54394 131.90151 33750 ft 501 kts 68°
2026-02-21 05:30 33.55596 131.94075 34105 ft 501 kts 68°
2026-02-21 05:30 33.56798 131.97999 34367 ft 503 kts 68°
2026-02-21 05:30 33.58008 132.01947 34591 ft 505 kts 68°
2026-02-21 05:30 33.59219 132.05909 34819 ft 507 kts 68°
2026-02-21 05:31 33.60436 132.09892 35018 ft 510 kts 68°
2026-02-21 05:31 33.62874 132.17883 35101 ft 509 kts 68°
2026-02-21 05:32 33.65301 132.25855 35104 ft 509 kts 68°
2026-02-21 05:32 33.67724 132.33837 35096 ft 509 kts 68°
2026-02-21 05:33 33.70144 132.41831 35094 ft 509 kts 68°
2026-02-21 05:33 33.72557 132.49824 35084 ft 509 kts 68°
2026-02-21 05:34 33.74967 132.57825 35074 ft 509 kts 68°
2026-02-21 05:34 33.77367 132.65827 35072 ft 509 kts 68°
2026-02-21 05:35 33.79760 132.73840 35070 ft 509 kts 68°
2026-02-21 05:35 33.82146 132.81855 35072 ft 510 kts 68°
2026-02-21 05:36 33.84516 132.89832 35078 ft 509 kts 69°
2026-02-21 05:36 33.87326 132.97638 35088 ft 509 kts 61°
2026-02-21 05:37 33.90435 133.05258 35097 ft 507 kts 60°
2026-02-21 05:37 33.93564 133.12886 35105 ft 508 kts 60°
2026-02-21 05:38 33.96680 133.20516 35097 ft 508 kts 60°
2026-02-21 05:38 33.99787 133.28152 35107 ft 508 kts 60°
2026-02-21 05:39 34.02865 133.35740 34722 ft 503 kts 60°
2026-02-21 05:39 34.04399 133.39525 34183 ft 501 kts 61°
2026-02-21 05:39 34.05927 133.43298 33402 ft 501 kts 61°
2026-02-21 05:39 34.07455 133.47079 32518 ft 502 kts 60°
2026-02-21 05:40 34.08981 133.50863 31596 ft 503 kts 60°
2026-02-21 05:40 34.10517 133.54674 30680 ft 504 kts 60°
2026-02-21 05:40 34.12049 133.58486 29678 ft 504 kts 60°
2026-02-21 05:40 34.13575 133.62287 28780 ft 501 kts 60°
2026-02-21 05:41 34.15082 133.66044 28052 ft 494 kts 60°
2026-02-21 05:41 34.16567 133.69752 27327 ft 488 kts 60°
2026-02-21 05:41 34.18037 133.73420 26607 ft 482 kts 60°
2026-02-21 05:41 34.19487 133.77041 25915 ft 476 kts 60°
2026-02-21 05:42 34.20920 133.80620 25254 ft 470 kts 60°
2026-02-21 05:42 34.22335 133.84158 24592 ft 465 kts 60°
2026-02-21 05:42 34.23733 133.87657 23950 ft 460 kts 60°
2026-02-21 05:42 34.25108 133.91106 23569 ft 448 kts 60°
2026-02-21 05:43 34.26432 133.94437 23429 ft 430 kts 60°
2026-02-21 05:43 34.27714 133.97664 23294 ft 427 kts 60°
2026-02-21 05:43 34.29011 134.00917 23160 ft 432 kts 60°
2026-02-21 05:43 34.30293 134.04136 23023 ft 429 kts 60°
2026-02-21 05:44 34.31600 134.07425 22986 ft 427 kts 60°
2026-02-21 05:44 34.32855 134.10594 23708 ft 417 kts 60°
2026-02-21 05:44 34.34119 134.13788 24106 ft 428 kts 60°
2026-02-21 05:44 34.35425 134.17082 24328 ft 438 kts 60°
2026-02-21 05:45 34.36744 134.20415 24517 ft 440 kts 60°
2026-02-21 05:45 34.38061 134.23752 24688 ft 441 kts 60°
2026-02-21 05:45 34.39386 134.27117 24839 ft 442 kts 60°
2026-02-21 05:45 34.40709 134.30479 24960 ft 443 kts 60°
2026-02-21 05:46 34.42030 134.33841 24861 ft 441 kts 60°
2026-02-21 05:46 34.43348 134.37197 24350 ft 442 kts 60°
2026-02-21 05:46 34.44673 134.40567 23535 ft 445 kts 60°
2026-02-21 05:46 34.46013 134.43974 22463 ft 450 kts 60°
2026-02-21 05:47 34.47354 134.47386 21678 ft 447 kts 61°
2026-02-21 05:47 34.48687 134.50786 20754 ft 447 kts 61°
2026-02-21 05:47 34.50021 134.54187 20058 ft 443 kts 61°
2026-02-21 05:47 34.51325 134.57522 19647 ft 432 kts 61°
2026-02-21 05:48 34.52588 134.60763 19391 ft 417 kts 61°
2026-02-21 05:48 34.53802 134.63885 19183 ft 404 kts 61°
2026-02-21 05:48 34.55006 134.66973 18515 ft 407 kts 61°
2026-02-21 05:48 34.56225 134.70092 17496 ft 413 kts 62°
2026-02-21 05:49 34.57470 134.73276 16381 ft 421 kts 62°
2026-02-21 05:49 34.58726 134.76497 14970 ft 425 kts 62°
2026-02-21 05:49 34.60005 134.79796 13567 ft 437 kts 64°
2026-02-21 05:49 34.60944 134.83293 12767 ft 433 kts 76°
2026-02-21 05:50 34.61333 134.86876 11998 ft 427 kts 87°
2026-02-21 05:50 34.61264 134.90452 11284 ft 418 kts 92°
2026-02-21 05:50 34.61139 134.93959 10493 ft 414 kts 92°
2026-02-21 05:50 34.61036 134.97426 9732 ft 408 kts 92°
2026-02-21 05:51 34.60956 135.00820 9243 ft 395 kts 91°
2026-02-21 05:51 34.60891 135.04091 8849 ft 381 kts 91°
2026-02-21 05:51 34.60833 135.07316 7882 ft 384 kts 91°
2026-02-21 05:51 34.60772 135.10564 6990 ft 385 kts 91°
2026-02-21 05:52 34.60708 135.13795 6273 ft 380 kts 91°
2026-02-21 05:52 34.60574 135.20116 4788 ft 370 kts 92°
2026-02-21 05:52 34.60509 135.23216 4132 ft 363 kts 92°
2026-02-21 05:53 34.60451 135.26254 3431 ft 358 kts 92°
2026-02-21 05:53 34.60395 135.29243 2853 ft 349 kts 92°
2026-02-21 05:53 34.60340 135.32116 2642 ft 331 kts 92°
2026-02-21 05:53 34.60283 135.34818 2563 ft 310 kts 95°
2026-02-21 05:54 34.59769 135.37223 2371 ft 277 kts 118°
2026-02-21 05:54 34.58676 135.38778 2097 ft 215 kts 148°
2026-02-21 05:54 34.57413 135.39184 1991 ft 169 kts 188°
2026-02-21 05:54 34.56422 135.38750 1967 ft 140 kts 213°
2026-02-21 05:55 34.55705 135.38072 1841 ft 126 kts 223°
2026-02-21 05:55 34.55051 135.37387 1651 ft 122 kts 218°
2026-02-21 05:55 34.54339 135.36847 1610 ft 122 kts 210°
2026-02-21 05:55 34.53588 135.36310 1592 ft 125 kts 219°
2026-02-21 05:56 34.52950 135.35608 1596 ft 123 kts 227°
2026-02-21 05:56 34.52381 135.34829 1594 ft 124 kts 231°
2026-02-21 05:56 34.51832 135.34019 1596 ft 124 kts 232°
2026-02-21 05:56 34.51284 135.33199 1602 ft 126 kts 232°
2026-02-21 05:57 34.50734 135.32379 1593 ft 124 kts 232°
2026-02-21 05:57 34.50189 135.31565 1599 ft 125 kts 232°
2026-02-21 05:57 34.49639 135.30742 1468 ft 125 kts 232°
2026-02-21 05:57 34.49089 135.29922 1312 ft 126 kts 232°
2026-02-21 05:58 34.48537 135.29099 1129 ft 126 kts 232°
2026-02-21 05:58 34.47984 135.28274 963 ft 127 kts 233°
2026-02-21 05:58 34.47465 135.27500 806 ft 127 kts 233°
2026-02-21 05:58 34.46907 135.26669 635 ft 127 kts 233°
2026-02-21 05:59 34.46351 135.25838 465 ft 127 kts 233°
2026-02-21 05:59 34.45804 135.25023 297 ft 125 kts 233°
2026-02-21 05:59 34.45254 135.24202 124 ft 126 kts 233°
2026-02-21 05:59 34.44722 135.23397 35 ft 114 kts 232°
2026-02-21 06:00 34.44408 135.22936 29 ft 19 kts 238°
2026-02-21 06:00 34.44344 135.22894 28 ft 3 kts 134°
2026-02-21 06:00 34.44349 135.22919 29 ft 6 kts 70°
2026-02-21 06:00 34.44375 135.23013 30 ft 16 kts 86°
2026-02-21 06:01 34.44361 135.23150 30 ft 11 kts 140°
2026-02-21 06:01 34.44315 135.23132 29 ft 9 kts 232°
2026-02-21 06:01 34.44262 135.23056 28 ft 14 kts 230°
2026-02-21 06:01 34.44194 135.22953 29 ft 17 kts 231°
2026-02-21 06:02 34.44119 135.22840 31 ft 18 kts 230°
2026-02-21 06:02 34.44027 135.22718 32 ft 21 kts 224°
2026-02-21 06:02 34.43948 135.22579 34 ft 20 kts 237°
2026-02-21 06:02 34.43924 135.22549 33 ft 1 kts 225°
2026-02-21 06:03 34.43893 135.22511 32 ft 13 kts 225°
2026-02-21 06:03 34.43795 135.22422 32 ft 22 kts 174°
2026-02-21 06:03 34.43655 135.22540 30 ft 26 kts 140°
2026-02-21 06:03 34.43539 135.22652 29 ft 23 kts 141°
2026-02-21 06:04 34.43418 135.22770 31 ft 23 kts 141°
2026-02-21 06:04 34.43282 135.22901 29 ft 27 kts 142°
2026-02-21 06:04 34.43148 135.23042 24 ft 20 kts 118°
2026-02-21 06:04 34.43116 135.23183 20 ft 18 kts 143°
2026-02-21 06:05 34.43010 135.23297 14 ft 23 kts 135°
2026-02-21 06:05 34.42963 135.23378 13 ft 2 kts 89°
2026-02-21 06:05 34.42985 135.23426 13 ft 13 kts 47°
2026-02-21 06:05 34.43071 135.23547 11 ft 24 kts 50°
2026-02-21 06:06 34.43176 135.23698 11 ft 13 kts 56°
2026-02-21 06:06 34.43197 135.23816 10 ft 17 kts 88°
2026-02-21 06:06 34.43257 135.23948 10 ft 20 kts 53°
2026-02-21 06:06 34.43263 135.24025 13 ft 0 kts 144°
2026-02-21 06:07 34.43253 135.24037 11 ft 3 kts 129°
2026-02-21 06:07 34.43231 135.24065 13 ft 6 kts 139°
2026-02-21 06:07 34.43226 135.24071 12 ft 0 kts 138°